Regional Weather Roundup
Issued by NWS Austin/San Antonio, TX

Home | Current Version | Previous Version | Text Only | Print | Product List | Glossary On
Versions: 1 2 3 4 5 6 7 8 9 10 11 12 13 14 15 16 17 18 19 20 21 22 23 24 25 26 27 28 29 30 31 32 33 34 35 36 37 38 39 40 41 42 43 44 45 46 47 48 49 50
980
ASUS44 KEWX 262302
RWREWX
SOUTH TEXAS REGIONAL WEATHER ROUNDUP
NATIONAL WEATHER SERVICE AUSTIN/SAN ANTONIO TX
600 PM CDT FRI MAY 26 2017

NOTE: "FAIR" INDICATED FEW OR NO CLOUDS BELOW 12,000 FEET WITH NO
SIGNIFICANT WEATHER AND/OR OBSTRUCTIONS TO VISIBILITY.

* - THESE STATIONS ARE NOT NWS OR FAA STATIONS...AND ARE NOT SUBJECT
    TO NWS AND FAA QUALITY CONTROL.

TXZ171-172-183>190-270000-
TEXAS HILL COUNTRY AND EDWARDS PLATEAU

CITY           SKY/WX    TMP DP  RH WIND       PRES   REMARKS
JUNCTION       MOSUNNY   99  62  29 SW7       29.80F HX 100
*LLANO         SUNNY     93  73  52 S7        29.83F HX 102
BURNET         SUNNY     87  71  58 S9G20     29.85F HX  93
*HORSESHOE BAY NOT AVBL
*KERRVILLE     SUNNY     88  74  63 S10G16    29.85F HX  97
*FREDERICKSBRG SUNNY     87  67  51 S7        29.85F HX  90
*ROCKSPRINGS   MOSUNNY   88  70  55 CALM      29.90S HX  92
*BOERNE STAGE  MOSUNNY   86  70  58 S6        29.86F HX  90
*CASTROVILLE   MOSUNNY   92  69  46 SE6       29.83R HX  97
HONDO          MOSUNNY   90  73  57 S5        29.82F HX  98
*UVALDE        SUNNY     89  73  60 CALM      29.82S HX  97
DEL RIO        CLOUDY    90  72  55 SE9       29.78S HX  97
LAUGHLIN AFB   NOT AVBL
CARRIZO SPRGS  SUNNY     97  70  41 E7        29.75F HX 103
*EAGLE PASS    NOT AVBL
$$

TXZ173-191>194-202-209-217>225-228-270000-
CENTRAL AND SOUTH CENTRAL TEXAS

CITY           SKY/WX    TMP DP  RH WIND       PRES   REMARKS
GEORGETOWN     PTSUNNY   90  72  55 S15G21    29.81  HX  96
AUSTIN/BERGSTM PTSUNNY   92  71  50 SW12      29.80F HX  98
AUSTIN/MABRY   PTSUNNY   91  72  53 S6        29.82F HX  98
*AUSTIN/EXEC   FAIR      90  73  58 S9        29.81F HX  98
*LAGO VISTA    CLOUDY    87  71  59 S8        29.85S HX  92
SAN MARCOS     PTSUNNY   90  72  55 S10       29.82F HX  96
NEW BRAUNFELS  MOSUNNY   91  72  53 S10       29.81F HX  98
RANDOLPH AFB   MOSUNNY   90  72  55 S9        29.82S HAZE    HX  96
PT SAN ANTONIO MOSUNNY   91  72  53 E6        29.80F HX  99
SAN ANTONIO    PTSUNNY   90  70  51 S3        29.82F HX  95
STINSON FIELD  MOSUNNY   91  72  53 SE8       29.79F HX  98
*LA GRANGE     MOSUNNY   89  76  65 S13G18    29.81S HX 100
*GIDDINGS      MOSUNNY   89  73  57 S10       29.83F HX  96
*GONZALES      PTSUNNY   90  77  65 S12       29.81S HX 102
$$

TXZ163>164-176>182-195>201-210>213-226-227-235-270000-
SOUTHEAST TEXAS

CITY           SKY/WX    TMP DP  RH WIND       PRES   REMARKS
COLLEGE STN    MOSUNNY   89  74  60 S16G23    29.83S HX  98
*BRYAN         MOSUNNY   88  73  62 S13G20    29.84F HX  96
*CALDWELL      NOT AVBL
*CROCKETT      MOSUNNY   90  73  58 S12G20    29.86S HX  98
*BRENHAM       MOSUNNY   89  74  61 S16       29.85R HX  97
HUNTSVILLE     MOSUNNY   89  71  55 S12G21    29.85S HX  95
CONROE         PTSUNNY   88  73  61 S13       29.86R HX  95
HOUSTON BUSH   PTSUNNY   86  74  67 S12       29.86S HX  94
HOUSTON HOBBY  CLOUDY    83  74  74 S14       29.87S
*HOUSTON SW AP CLOUDY    82  74  78 S8        29.88S
PEARLAND       CLOUDY    85  74  69 S14       29.88F HX  92
HOUSTON HOOKS  CLOUDY    87  74  64 S7G17     29.86S HX  95
ELLINGTON FLD  PTSUNNY   84  73  70 S10       29.90S HX  91
SUGAR LAND     CLOUDY    85  75  72 S14       29.86S HX  93
*HOUSTON EXEC  CLOUDY    86  75  70 S13       29.87S HAZE    HX  95
*CLEVELAND MUN CLOUDY    84  75  74 SE9G17    29.88S HAZE    HX  92
*WHARTON       CLOUDY    83  73  69 SE12      29.86S
*COLUMBUS      CLOUDY    84  74  70 S12       29.86R HX  91
*EAGLE LAKE    CLOUDY    85  77  78 S14G20    29.86R HX  95
$$

TXZ214>216-236>238-270000-
THE UPPER TEXAS COAST

CITY           SKY/WX    TMP DP  RH WIND       PRES   REMARKS
*ORANGE        CLOUDY    82  75  79 S13       29.93F
PORT ARTHUR    CLOUDY    82  73  74 S16       29.90F
GALVESTON      SUNNY     84  78  82 SE16      29.89F HX  95
ANGLETON       CLOUDY    84  76  76 S16       29.87F HX  93
*BAY CITY      CLOUDY    84  76  77 SE14      29.86S HX  93
PALACIOS       MOSUNNY   83  76  79 SE22G28   29.85S HX  91
$$

TXZ229>234-239>247-270000-
TEXAS COASTAL BEND AND RIO GRANDE PLAINS

CITY           SKY/WX    TMP DP  RH WIND       PRES   REMARKS
VICTORIA       CLOUDY    85  75  72 S16       29.84S HX  93
*BEEVILLE      PTSUNNY   88  79  74 SE10      29.81S HX 103
ROCKPORT       PTSUNNY   85  76  74 SE17G24   29.81F HX  94
*PORT ARANSAS  SUNNY     83  76  81 SE18      29.82S HX  91
*PORT LAVACA   CLOUDY    82  79  89 SE15      29.84S HX  93
*INGLESIDE     PTSUNNY   86  78  77 SE20G28   29.81S HX  98
CORPUS CHRISTI MOSUNNY   87  78  74 SE20      29.80R HX 100
CORPUS NAS     MOSUNNY   87  79  76 SE22G29   29.80S HX 101
*ROBSTOWN      SUNNY     90  78  67 SE14G24   29.79S HX 104
ALICE          MOSUNNY   92  77  61 SE18G24   29.77S HX 105
KINGSVILLE NAS SUNNY     92  80  68 SE18      29.78R HX 110
COTULLA        MOSUNNY  100  68  35 VRB7      29.75F HX 105
*FAITH RANCH   SUNNY     97  72  44 SE8G14    29.77F HX 105
LAREDO         SUNNY     97  74  47 CALM      29.75F HX 108
$$

TXZ248>255-270000-
DEEP SOUTH TEXAS

CITY           SKY/WX    TMP DP  RH WIND       PRES   REMARKS
BROWNSVILLE    PTSUNNY   90  78  68 S20       29.80F HX 104
PORT ISABEL    MOSUNNY   89  77  67 S20       29.79S HX 101
*SOUTH PADRE   NOT AVBL
HARLINGEN      SUNNY     92  77  61 SE21G28   29.76F HX 105
*HEBBRONVILLE  MOSUNNY   99  67  35 S13       29.78S HX 104
MCALLEN        MOSUNNY   96  77  54 SE20G25   29.75S HX 111
*WESLACO       SUNNY     93  75  56 S15G24    29.75F HX 104
FALFURRIAS     SUNNY     98  71  41 S13G24    29.75R HX 105
EDINBURG       SUNNY     96  73  47 S18       29.76S HX 105
*ZAPATA        SUNNY     99  70  38 S3        29.73F HX 106
$$

TXZ213>215-236>238-242>244-246-247-251-254-255-270000-
CMAN STATIONS

STATION/POSITION TIME  TEMP    WIND        PRES    WAVE
                       AIR SEA DIR/SP/G            HT/PER
                 (UTC) (F)     (DEG/KT/KT) (MB)    (FT/S)
SABINE PASS      2230   81 82  160/ 14/ 19 1014.7
SEA RIM ST PARK  2200   80     160/ 11/ 13 1013.8
NORTH JETTY/GLS  2230      80  140/ 17/ 19 1011.6
EAGLE POINT      2230   80 79  170/ 14/ 17 1011.8
MORGANS POINT    2230   81 79  150/  9/ 14 1011.7
MISSION/ARANSAS  2200   82                 1010.0
PORT O`CONNOR    2230   80     130/ 18/ 21 1010.0
PORT ARANSAS     2200   80 82  130/ 19/ 22 1009.5
MALAQUITE BEACH  2230   81 82  120/ 20/ 22 1009.5
BAFFIN BAY       2230   82 85              1008.7
PORT ISABEL      2230   83 81  150/ 12/ 16 1009.4
$$




USA.gov is the U.S. government's official web portal to all federal, state and local government web resources and services.